Location: Aix-en-Ergny
(50.5839°N, 1.9996°E)
Time: 07:26:08
(UTC+00:00)

SL-8 Rocket - Pass Details

Date: 23 October 2019
Orbit: 957 x 990 km, 82.9° (Epoch: 19 November)

Event Time Altitude Azimuth Distance (km) Brightness Sun altitude
Rises 05:06:18 0° 189° (S) 3,642 6.9 -13.5°
Reaches altitude 10° 05:08:47 10° 190° (S) 2,695 6.2 -13.1°
Maximum altitude 05:14:58 85° 280° (W) 972 3.9 -12.1°
Drops below altitude 10° 05:21:10 10° 9° (N) 2,702 6.4 -11.1°
Sets 05:23:41 0° 10° (N) 3,652 7.1 -10.7°
